www.pogodaiklimat.ru
ПОГОДА на Острове Вено
Время
(UTC), дата
00 23.09
06 23.09
12 23.09
18 23.09
00 24.09
06 24.09
12 24.09
18 24.09
00 25.09
06 25.09
12 25.09
18 25.09
00 26.09
06 26.09
12 26.09
18 26.09
00 27.09
06 27.09
12 27.09
18 27.09
00 28.09
06 28.09
12 28.09
18 28.09
00 29.09
06 29.09
12 29.09
18 29.09
Ветер
(напр.,м/с)
Видим. Явления Облачность Т
(С)
Тd
(С)
f
(%)
Тe
(С)
Тes
(С)
Комфортность P
(гПа)
Po
(гПа)
Тmin
(С)
Tmax
(С)
R
(мм)
R24
(мм)
S
(см)
нст 2 22 км слаб. дождь {гроза} 10/3 300 м
[Cb calv As op Cs]
+25.0 +24.4 96 +35 +41 очень
душно
1011.0 1010.7 +25.0 75 74.7
нст 3 24 км 10/3 300 м
[Cu hum As op Cs]
+25.6 +25.0 96 +36 +38 очень
душно
1008.4 1008.1 0.0 74.7
нст 2 24 км 9/3 300 м
[Cu hum As op Cs]
+25.6 +24.4 93 +36 +36 очень
душно
1010.8 1010.5 +28.3 61.5
штиль 0 24 км 8/3 300 м
[Cu hum Ac As Ci fib]
+25.6 +24.4 93 +36 +36 очень
душно
1008.9 1008.6 41.9
З 4 24 км 10/3 300 м
[Cu hum Ac As Ci fib]
+29.8 +27.0 85 +47 +51 опасность
перегрева
1010.0 1009.7 +25.0 0.0
нст 2 24 км 10/4 300 м
[Cb calv As op Ci fib]
+29.3 +26.6 85 +45 +47 опасность
перегрева
1007.6 1007.3
нст 3 24 км {ливн. дождь} 10/3 300 м
[Cu hum Ac As Ci fib]
+26.7 +25.1 91 +38 +38 очень
душно
1010.3 1010.0 +30.5 1 1.3
нст 2 22 км {ливн. дождь} 10/4 300 м
[Cb calv Ac As]
+24.5 +24.4 99 +34 +34 очень
душно
1008.4 1008.1 17 17.8
нст 2 24 км {ливн. дождь, дождь} 10/3 300 м
[Cb calv Ac As Ci fib]
+28.9 +26.6 87 +44 +51 опасность
перегрева
1011.1 1010.8 +24.4 41 41.4
нст 2 24 км 10/3 300 м
[Cu med, cong Ac As Ci fib]
+29.2 +26.9 87 +46 +47 опасность
перегрева
1007.9 1007.6 41.4
нст 3 24 км 10/3 300 м
[Cu hum Ac As Ci fib]
+25.6 +24.4 93 +36 +36 очень
душно
1010.6 1010.3 +32.2 40.1
нст 3 24 км 10/3 300 м
[Cu hum Ac As Ci fib]
+25.4 +24.4 94 +35 +35 очень
душно
1009.8 1009.5 23.6
штиль 0 24 км 10/3 300 м
[Cu hum Ac As Cs]
+29.4 +27.8 91 +48 +56 опасность
перегрева
1012.0 1011.7 +24.4
штиль 0 24 км {ливн. дождь, дождь} 10/4 300 м
[Cb calv As op Cs]
+27.8 +24.8 84 +40 +42 очень
душно
1008.6 1008.3 0.5 0.5
нст 2 24 км 10/3 300 м
[Cu hum Ac As Ci fib]
+26.3 +24.2 88 +37 +37 очень
душно
1011.8 1011.5 +30.0 0.5
нст 2 24 км 6/1 300 м
[Cu hum Ac As Ci fib]
+25.5 +23.4 88 +34 +34 очень
душно
1010.0 1009.7 0.5
нст 2 24 км 8/3 300 м
[Cu hum Ac As Ci fib]
+31.1 +28.9 88 +54 +62 опасность
перегрева
1011.5 1011.2 +25.4 0.5 0.5
нст 2 24 км 6/3 300 м
[Cu hum Ci fib]
+31.7 +25.6 70 +46 +50 опасность
перегрева
1008.3 1008.0
нст 2 24 км 1/1 300 м
[Cu hum Ci fib]
+25.8 +23.4 87 +35 +35 очень
душно
1011.5 1011.2 +31.9
нст 1 24 км 4/1 300 м
[Cu hum Ci fib]
+24.9 +21.5 81 +32 +32 очень
душно
1009.6 1009.3
нст 3 24 км 6/3 300 м
[Cu hum Ci fib]
+31.4 +27.8 81 +51 +60 опасность
перегрева
1010.5 1010.2 +24.8
нст 2 24 км 5/3 300 м
[Cu hum Ci fib]
+30.6 +26.8 80 +48 +51 опасность
перегрева
1007.2 1006.9
штиль 0 24 км 4/1 300 м
[Cu hum Ci fib]
+27.2 +23.0 78 +36 +36 очень
душно
1010.5 1010.2 +31.7
нст 2 24 км 4/1 300 м
[Cu hum Ci fib]
+25.7 +19.9 70 +31 +31 очень
душно
1007.8 1007.5
нст 2 24 км {ливн. дождь} 5/3 300 м
[Cu hum Ci fib]
+29.5 +25.6 80 +44 +55 опасность
перегрева
1008.9 1008.6 +25.6 0.0
нст 3 24 км 10/4 300 м
[Cb calv Ac As Ci fib]
+29.4 +27.2 88 +47 +48 опасность
перегрева
1005.7 1005.4
нст 2 24 км {ливн. дождь} 10/3 300 м
[Cu hum As op Cs]
+25.0 +24.4 96 +35 +35 очень
душно
1008.8 1008.5 +31.6 25 25.4
нст 3 16 км слаб. ливневой дождь 10/3 300 м
[Cb calv As op Cs]
+25.4 +24.4 94 +35 +35 очень
душно
1006.4 1006.1 23 48.0
Местоположение метеостанции Остров Вено (Микронезия): широта 7.45 долгота 151.83 высота над уровнем моря 1.5 м.
В архиве по умолчанию представлена погода на Острове Вено за последнюю неделю. Архивные данные за месяц целиком и за предыдущие месяцы, начиная с января 2011 года, Вы можете получить, выбрав интересующий диапазон дат из раскрывающегося списка и нажав кнопку "Найти!".
*Определитесь, кто Вы:
Внимание! Время в таблицах - всемирное. Для получения местного времени необходимо прибавить поправку, которая равна 10 ч.
Смотрите также архив погоды в соседних городах и на ближайших метеорологических станциях:
Партнеры нашего сайта:      
Пояснения к столбцам:
  • Ветер - указаны скорость ветра в м/с - средняя за 10 мин, порывы в срок и между сроками (в фигурных скобках) и направление, откуда дует ветер: С - северный,
  • СВ - северо-восточный, В - восточный, ЮВ - юго-восточный, Ю - южный, ЮЗ - юго-западный, З - западный, СЗ - северо-западный.
  • Видимость - горизонтальная дальность видимости в метрах или километрах. При видимости от 1 до 10 км при отсутствии осадков обычно наблюдается дымка, при ухудшении видимости до 1 км и менее - туман. В сухую погоду видимость может ухудшаться дымом, пылью или мглою.
  • Явления - указаны атмосферные явления, наблюдавшиеся в срок или в последний час перед сроком; фигурными скобками обозначены явления, наблюдавшиеся между сроками (за 1-3 часа до срока); квадратными скобками обозначены град или гололедные отложения с указанием их диаметра в мм.
  • Облачность - указаны через наклонную черту общая и нижняя облачность в баллах и высота нижней границы облаков в метрах; квадратными скобками обозначены формы облаков: Ci - перистые, Cs - перисто-слоистые, Cc - перисто-кучевые, Ac - высококучевые, As - высокослоистые, Sc - слоисто-кучевые, Ns - слоисто-дождевые, Cu - кучевые, Cb - кучево-дождевые. Подробнее классификацию облаков см. в Атласе облаков (PDF).
  • T - Температура воздуха - температура, измеренная на высоте 2 м над землей.
  • Td - Температура точки росы - температура, при понижении до которой содержащийся в воздухе водяной пар достигнет насыщения.
  • f - Относительная влажность воздуха - влажноcть воздуха, измеренная на высоте 2 м над землей.
  • Te - Эффективная температура - температура, которую ощущает одетый по сезону человек в тени. Характеристика душности погоды. При расчете учитывается влияние влажности воздуха и скорости ветра на теплоощущения человека.
  • Tes - Эффективная температура на солнце - температура, которую ощущает человек, с поправкой на солнечный нагрев. Характеристика знойности погоды. Зависит от высоты солнца над горизонтом, облачности и скорости ветра. Ночью, в пасмурную погоду, а также при ветре 12 м/с и более поправка равна нулю.
  • P - Атмосферное давление - приведенное к уровню моря атмосферное давление.
  • Po - Атмосферное давление - измеренное на уровне метеостанции атмосферное давление.
  • Tmin - Минимальная температура - минимум температуры воздуха на высоте 2 м над землей.
  • Tmax - Максимальная температура - максимум температуры воздуха на высоте 2 м над землей.
  • R - Количество осадков - Количество выпавших осадков за период времени, мм. При наведении курсора мыши на число - период времени, за который выпало указанное количество осадков.
  • R24 - Количество осадков - Количество выпавших осадков за 24 часа, мм.
  • S - Снежный покров - Высота снежного покрова, см. При наведении курсора мыши на число - состояние снежного покрова и степень покрытия местности в баллах.